User: anonymous   Login
Location: Unspecified
(0.0000°N, 0.0000°E)
Time: 22:21:07
(UTC+00:00)
Language:

FORTE - Orbit

View from above orbital plane
View from above orbital plane
View from above satellite
View from above satellite

Ground track
Ground track

The orbit data is extracted from the following two-line orbital elements,

1 24920U 97047A   17326.92270805 +.00000046 +00000-0 +42961-4 0  9992
2 24920 069.9544 226.1428 0024642 221.3315 138.5943 14.26267383052479
Epoch (UTC): 22 November 2017 22:08:41
Eccentricity: 0.0024642
inclination: 69.9544°
perigee height: 786 km
apogee height: 822 km
right ascension of ascending node: 226.1428°
argument of perigee: 221.3315°
revolutions per day: 14.26267383
mean anomaly at epoch: 138.5943°
orbit number at epoch: 5247

The dashed part of the orbit path shows where the satellite is in the earth's shadow,  

DLR